Location: Newark
(53.4333°N, 36.0000°E)
Time: 15:20:05
(UTC+00:00)

N. Korean satellite - Visible Passes

Search period start: 23 October 2019 00:00
Search period end: 02 November 2019 00:00
Orbit: 455 x 508 km, 97.2° (Epoch: 22 October)

Date Brightness Start Highest point End Pass type
(mag) Time Alt. Az. Time Alt. Az. Time Alt. Az.
23 Oct 7.4 03:29:49 10° NNE 03:33:24 58° E 03:37:02 10° S visible
23 Oct 10.1 15:46:31 10° WSW 15:48:27 14° W 15:50:25 10° NW visible
24 Oct 8.8 03:04:43 10° NNE 03:08:00 31° E 03:11:19 10° SSE visible
24 Oct 9.2 15:20:00 10° SSW 15:22:55 25° W 15:25:53 10° NW visible
25 Oct 9.8 02:39:55 10° NE 02:42:31 18° E 02:45:07 10° SE visible
25 Oct 7.8 14:54:07 10° S 14:57:27 46° W 15:00:52 10° NNW visible
26 Oct 10.5 02:16:18 10° ENE 02:16:56 10° E 02:17:33 10° E visible
27 Oct 7.8 03:21:58 10° NNE 03:25:32 48° E 03:29:07 10° S visible
27 Oct 9.9 15:38:07 10° SW 15:40:29 17° W 15:42:53 10° NW visible
28 Oct 9.1 02:56:55 10° NE 03:00:06 27° E 03:03:16 10° SSE visible
28 Oct 8.8 15:11:50 10° SSW 15:14:57 30° W 15:18:08 10° NNW visible
29 Oct 10.0 02:32:16 10° NE 02:34:34 16° E 02:36:51 10° SE visible
29 Oct 7.3 14:46:05 10° S 14:49:31 57° W 14:53:02 10° NNW visible
30 Oct 6.9 03:39:18 10° NNE 03:43:00 75° ESE 03:46:43 10° S visible
30 Oct 10.3 15:56:47 10° WSW 15:58:05 12° W 15:59:23 10° WNW visible
31 Oct 8.2 03:14:06 10° NNE 03:17:37 40° E 03:21:08 10° S visible
31 Oct 9.5 15:29:47 10° SW 15:32:28 20° W 15:35:13 10° NW visible
01 Nov 9.4 02:49:07 10° NE 02:52:08 23° E 02:55:07 10° SSE visible
01 Nov 8.3 15:03:42 10° SSW 15:06:58 36° W 15:10:19 10° NNW visible
